EW3345 Weather Reports


time (UTC)temp
F
wind
direction
speed
knots
gust
knots
rain 1hr
in
rain 24hr
in
rain mn
in
humidity
%
barometer
mb
20260506193256 47 45 0.9 0.9 0.00 0.00 0.00 55 1013.8
20260506192216 47 0.0 0.9 0.00 0.00 0.00 54 1013.7
20260506191215 48 0.0 1.7 0.00 0.00 0.00 52 1013.5
20260506190216 48 0.0 1.7 0.00 0.00 0.00 50 1013.4
20260506185216 48 0.0 1.7 0.00 0.00 0.00 49 1013.3
20260506184215 48 90 0.9 1.7 0.00 0.00 0.00 48 1013.3
20260506183216 48 45 1.7 4.3 0.00 0.00 0.00 48 1013.4
20260506182216 48 0.0 0.9 0.00 0.00 0.00 50 1013.5
20260506181216 48 0.0 0.0 0.00 0.00 0.00 48 1013.5
20260506180215 48 0.0 0.9 0.00 0.00 0.00 48 1013.5
20260506175216 49 0.0 0.9 0.00 0.00 0.00 47 1013.7
20260506174236 49 113 0.9 1.7 0.00 0.00 0.00 46 1013.7
20260506173215 49 113 0.9 2.6 0.00 0.00 0.00 44 1013.7
20260506172216 49 135 0.9 3.5 0.00 0.00 0.00 44 1013.7
20260506171216 50 113 1.7 3.5 0.00 0.00 0.00 46 1013.8
20260506170216 50 113 0.9 1.7 0.00 0.00 0.00 46 1013.7
20260506165215 50 90 2.6 5.2 0.00 0.00 0.00 44 1013.6
20260506164218 50 23 1.7 4.3 0.00 0.00 0.00 44 1013.4
20260506163217 51 113 0.9 2.6 0.00 0.00 0.00 45 1013.4
20260506162215 51 45 1.7 3.5 0.00 0.00 0.00 45 1013.3
20260506161218 51 113 3.5 7.8 0.00 0.00 0.00 46 1013.4
20260506160217 52 90 2.6 6.1 0.00 0.00 0.00 44 1013.4
20260506155217 52 23 0.9 1.7 0.00 0.00 0.00 45 1013.3
20260506154217 53 90 0.9 1.7 0.00 0.00 0.00 46 1013.4
20260506153237 53 90 0.9 2.6 0.00 0.00 0.00 44 1013.5
20260506152217 54 23 0.9 1.7 0.00 0.00 0.00 43 1013.7
20260506151217 54 0.0 0.9 0.00 0.00 0.00 42 1013.7
20260506150217 54 68 0.9 0.9 0.00 0.00 0.00 43 1013.8
20260506145217 55 0 1.7 3.5 0.00 0.00 0.00 37 1014.0
20260506144237 55 315 0.9 2.6 0.00 0.00 0.00 41 1014.2
20260506143217 55 0.0 1.7 0.00 0.00 0.00 42 1014.2
20260506142217 55 68 1.7 4.3 0.00 0.00 0.00 39 1014.3
20260506141217 56 0.0 0.9 0.00 0.00 0.00 38 1014.3
20260506140217 56 23 2.6 3.5 0.00 0.00 0.00 38 1014.3
20260506135217 56 90 0.9 1.7 0.00 0.00 0.00 39 1014.3
20260506134217 55 113 1.7 4.3 0.00 0.00 0.00 40 1014.2
20260506133217 56 68 0.9 1.7 0.00 0.00 0.00 36 1014.2
20260506132217 56 113 2.6 3.5 0.00 0.00 0.00 37 1014.3
20260506131237 55 113 1.7 4.3 0.00 0.00 0.00 36 1014.3
20260506130217 55 113 0.9 5.2 0.00 0.00 0.00 35 1014.3
20260506125217 56 90 1.7 3.5 0.00 0.00 0.00 33 1014.3
20260506124217 55 23 3.5 6.1 0.00 0.00 0.00 39 1014.2
20260506123217 53 135 4.3 7.0 0.00 0.00 0.00 39 1014.2
20260506122257 55 90 0.9 3.5 0.00 0.00 0.00 40 1014.3
20260506121217 55 135 2.6 4.3 0.00 0.00 0.00 37 1014.5
20260506120217 54 293 5.2 7.8 0.00 0.00 0.00 38 1014.5
20260506115257 54 113 4.3 6.1 0.00 0.00 0.00 40 1014.5
20260506114217 54 113 2.6 4.3 0.00 0.00 0.00 38 1014.6
20260506113237 55 135 2.6 5.2 0.00 0.00 0.00 40 1014.7
20260506112217 53 315 2.6 4.3 0.00 0.00 0.00 38 1014.7
20260506111216 53 315 9.6 11.3 0.00 0.00 0.00 40 1014.6
20260506110217 53 248 0.9 3.5 0.00 0.00 0.00 40 1014.9
20260506105216 53 203 1.7 4.3 0.00 0.00 0.00 44 1014.8
20260506104217 52 180 0.9 2.6 0.00 0.00 0.00 39 1014.8
20260506103217 52 293 3.5 7.0 0.00 0.00 0.00 39 1014.9
20260506102217 53 293 6.1 8.7 0.00 0.00 0.00 42 1015.0
20260506101216 52 158 0.9 1.7 0.00 0.00 0.00 42 1014.9
20260506100216 52 315 7.0 8.7 0.00 0.00 0.00 42 1015.0
20260506095216 52 338 0.9 2.6 0.00 0.00 0.00 40 1015.1
20260506094217 52 315 1.7 3.5 0.00 0.00 0.00 42 1015.1
20260506093217 51 293 5.2 10.4 0.00 0.00 0.00 43 1015.0
20260506092217 51 315 5.2 8.7 0.00 0.00 0.00 48 1015.0
20260506091217 50 315 2.6 3.5 0.00 0.00 0.00 45 1015.0
20260506090216 50 315 7.0 10.4 0.00 0.00 0.00 48 1015.0
20260506085216 50 293 4.3 7.8 0.00 0.00 0.00 48 1015.0
20260506084217 50 293 2.6 5.2 0.00 0.00 0.00 49 1015.0
20260506083236 50 293 7.8 8.7 0.00 0.00 0.00 47 1014.9
20260506082216 49 338 4.3 6.1 0.00 0.00 0.00 48 1015.1
20260506081237 49 315 4.3 9.6 0.00 0.00 0.00 50 1015.0
20260506080216 49 293 5.2 7.8 0.00 0.00 0.00 50 1015.0
20260506073216 48 293 7.8 11.3 0.00 0.00 0.00 52 1014.7
20260506072216 47 315 5.2 7.0 0.00 0.00 0.00 52 1014.8
20260506071216 47 315 4.3 7.0 0.00 0.00 0.00 51 1014.5
20260506070216 47 293 6.1 8.7 0.00 0.00 0.00 54 1014.6
20260506062216 45 315 2.6 3.5 0.00 0.00 0.00 58 1014.2
20260506061216 45 315 4.3 7.0 0.00 0.00 0.00 59 1014.3
20260506060216 44 293 5.2 7.0 0.00 0.00 0.00 61 1014.3
20260506051216 42 293 2.6 3.5 0.00 0.00 0.00 71 1014.1
20260506050216 41 293 2.6 3.5 0.00 0.00 0.00 74 1013.9
20260506044216 39 315 0.9 1.7 0.00 0.00 0.00 78 1013.9
20260506043236 39 293 1.7 1.7 0.00 0.00 0.00 79 1013.8
20260506042216 38 248 0.9 1.7 0.00 0.00 0.00 81 1013.7
20260506041216 37 0.0 0.0 0.00 0.00 0.00 81 1013.6
20260506040216 36 225 1.7 1.7 0.00 0.00 0.00 82 1013.6
20260506035216 35 248 0.9 0.9 0.00 0.00 0.00 83 1013.4
20260506034216 34 0.0 0.0 0.00 0.00 0.00 83 1013.3
20260506033216 34 0.0 0.0 0.00 0.00 0.00 83 1013.2
20260506032216 34 0.0 0.0 0.00 0.00 0.00 83 1013.1
20260506031216 34 0.0 0.0 0.00 0.00 0.00 82 1012.9
20260506030216 34 0.0 0.0 0.00 0.00 0.00 82 1012.7
20260506025236 33 0.0 0.9 0.00 0.00 0.00 82 1012.6
20260506024216 33 0.0 0.0 0.00 0.00 0.00 82 1012.5
20260506023216 33 0.0 0.0 0.00 0.00 0.00 81 1012.5
20260506022216 33 0.0 0.0 0.00 0.00 0.00 80 1012.5
20260506021236 34 0.0 0.0 0.00 0.00 0.00 79 1012.4
20260506020235 34 0.0 0.0 0.00 0.00 0.00 79 1012.4
20260506015215 34 0.0 0.0 0.00 0.00 0.00 78 1012.2
20260506014215 35 0.0 0.0 0.00 0.00 0.00 77 1012.2
20260506013216 35 0.0 0.0 0.00 0.00 0.00 77 1012.1
20260506012215 35 0.0 0.0 0.00 0.00 0.00 76 1012.0
20260506011235 36 0.0 0.9 0.00 0.00 0.00 75 1011.8
20260506010216 36 0.0 0.0 0.00 0.00 0.00 74 1011.8
20260506005216 37 315 0.9 0.9 0.00 0.00 0.00 74 1011.7
20260506004215 37 0.0 0.9 0.00 0.00 0.00 74 1011.6
20260506003217 37 315 0.9 2.6 0.00 0.00 0.00 73 1011.5
20260506002217 37 0.0 0.9 0.00 0.00 0.00 73 1011.5
20260506001217 38 315 1.7 3.5 0.00 0.00 0.00 73 1011.4
20260506000258 38 0.0 0.9 0.00 0.00 0.00 72 1011.3
20260505235217 38 0.0 0.9 0.00 0.00 0.00 72 1011.4
20260505234237 38 315 1.7 2.6 0.00 0.00 0.00 72 1011.2
20260505233217 38 0.0 0.9 0.00 0.00 0.00 72 1011.2
20260505232237 38 0.0 0.9 0.00 0.00 0.00 71 1011.1
20260505231217 39 0.0 0.0 0.00 0.00 0.00 71 1011.1
20260505230217 39 0.0 0.0 0.00 0.00 0.00 70 1011.1
20260505225217 40 293 0.9 1.7 0.00 0.00 0.00 69 1011.0
20260505224217 40 315 0.9 1.7 0.00 0.00 0.00 69 1011.0
20260505223217 40 0.0 0.9 0.00 0.00 0.00 69 1010.9
20260505222217 41 315 1.7 1.7 0.00 0.00 0.00 68 1010.8
20260505221217 41 315 0.9 1.7 0.00 0.00 0.00 68 1010.7
20260505220217 41 293 0.9 1.7 0.00 0.00 0.00 68 1010.7
20260505215217 42 315 0.9 1.7 0.00 0.00 0.00 69 1010.5
20260505214217 42 293 0.9 1.7 0.00 0.00 0.00 68 1010.3
20260505213217 43 293 0.9 1.7 0.00 0.00 0.00 67 1010.2
20260505212217 43 315 1.7 2.6 0.00 0.00 0.00 67 1010.1
20260505211217 44 293 2.6 3.5 0.00 0.00 0.00 66 1010.0
20260505210217 44 315 5.2 7.0 0.00 0.00 0.00 65 1009.8
20260505205215 45 315 5.2 7.8 0.00 0.00 0.00 66 1009.8
20260505204216 45 293 4.3 7.0 0.00 0.00 0.00 66 1009.6
20260505203216 46 293 4.3 7.0 0.00 0.00 0.00 66 1009.5
20260505202236 46 315 4.3 7.0 0.00 0.00 0.00 67 1009.3
20260505201216 47 293 3.5 4.3 0.00 0.00 0.00 68 1009.2
20260505200216 47 293 3.5 4.3 0.00 0.00 0.00 67 1009.2
20260505195216 47 315 4.3 7.0 0.00 0.00 0.00 68 1009.0
20260505194215 47 293 4.3 6.1 0.00 0.00 0.00 68 1008.8